GW7183 Weather Reports


Display with metric or nautical units.
time (UTC)temp
F
wind
direction
speed
MPH
gust
MPH
rain 1hr
in
rain 24hr
in
rain mn
in
humidity
%
barometer
mb
20260510054542 53 0 0.0 2.0 0.00 2.59 0.00 86 1008.8
20260510054531 53 262 0.0 3.0 0.00 0.41 0.00 87 1009.0
20260510054510 53 259 0.0 3.0 0.00 0.41 0.00 87 1009.0
20260510053049 54 0 2.0 7.0 0.00 2.59 0.00 85 1008.9
20260510053023 54 302 2.0 10.0 0.00 0.42 0.00 85 1009.0
20260510053012 54 297 2.0 11.0 0.00 0.42 0.00 85 1009.1
20260510051556 54 0 0.0 5.0 0.00 2.59 0.00 86 1008.6
20260510051521 54 248 3.0 7.0 0.00 0.42 0.00 86 1008.7
20260510051519 54 250 3.0 6.0 0.00 0.42 0.00 86 1008.7
20260510050046 52 322 2.0 8.0 0.00 2.59 0.00 90 1007.9
20260510050023 52 306 5.0 10.0 0.00 0.42 0.00 91 1008.1
20260510050021 52 301 5.0 11.0 0.00 0.42 0.00 91 1008.2
20260510044547 53 0 0.0 0.0 0.00 3.37 0.00 88 1007.0
20260510044526 52 203 0.0 1.0 0.00 0.43 0.00 89 1007.1
20260510044507 52 202 0.0 1.0 0.00 0.43 0.00 89 1007.2
20260510043043 53 0 0.0 0.0 0.00 3.37 0.00 87 1006.8
20260510043014 53 202 0.0 1.0 0.00 0.49 0.00 88 1007.2
20260510043011 53 203 0.0 1.0 0.00 0.49 0.00 88 1007.1
20260510041543 54 0 0.0 2.0 0.00 3.37 0.00 87 1006.8
20260510041520 53 202 0.0 4.0 0.00 0.51 0.00 88 1007.2
20260510041517 53 203 0.0 4.0 0.00 0.51 0.00 88 1007.1
20260510040050 54 0 0.0 6.0 2.57 3.37 0.00 86 1007.1
20260510040020 54 233 3.0 6.0 0.00 0.51 0.00 86 1007.5
20260510040004 54 235 3.0 6.0 0.00 0.51 0.00 86 1007.4
20260510034545 54 0 0.0 4.0 2.57 3.63 3.37 86 1006.9
20260510034524 54 206 2.0 5.0 0.00 0.52 0.51 86 1007.3
20260510034514 54 203 2.0 5.0 0.00 0.52 0.51 86 1007.2
20260510033045 53 0 0.0 2.0 2.57 3.63 3.37 88 1006.8
20260510033016 53 256 1.0 3.0 0.00 0.54 0.51 88 1007.1
20260510033009 53 253 1.0 3.0 0.00 0.54 0.51 88 1007.1
20260510031545 54 0 0.0 1.0 2.57 3.63 3.37 87 1006.6
20260510031516 53 226 0.0 3.0 0.00 0.54 0.51 88 1007.0
20260510030052 54 0 0.0 6.0 0.00 3.37 3.11 87 1006.9
20260510030024 54 240 0.0 9.0 0.00 0.54 0.51 87 1007.3
20260510024550 53 253 0.0 5.0 0.00 3.50 3.11 90 1007.4
20260510024520 53 217 4.0 9.0 0.00 0.54 0.51 90 1007.8
20260510024504 53 219 4.0 9.0 0.00 0.54 0.51 90 1007.8
20260510023050 53 0 0.0 1.0 0.00 3.50 3.11 89 1006.6
20260510023024 53 202 1.0 1.0 0.00 0.54 0.51 89 1006.8
20260510023004 53 203 1.0 1.0 0.00 0.54 0.51 89 1006.6
20260510021546 53 0 0.0 2.0 0.00 3.50 3.11 89 1006.7
20260510021518 53 237 1.0 4.0 0.00 0.54 0.51 89 1007.0
20260510021511 53 235 1.0 4.0 0.00 0.54 0.51 89 1007.1
20260510020046 53 0 0.0 2.0 0.00 3.50 3.11 89 1006.6
20260510020017 53 203 1.0 3.0 0.00 0.54 0.51 89 1006.9
20260510014551 53 0 0.0 2.0 0.00 4.14 3.11 89 1006.7
20260510014521 53 203 0.0 4.0 0.00 0.55 0.51 89 1006.9
20260510013040 53 0 0.0 2.0 0.00 4.14 3.11 89 1006.6
20260510013020 53 202 0.0 3.0 0.00 0.55 0.51 90 1006.8
20260510013005 53 203 0.0 3.0 0.00 0.55 0.51 90 1006.7
20260510011548 53 0 0.0 2.0 0.00 4.14 3.11 89 1006.4
20260510011524 53 235 2.0 5.0 0.00 0.55 0.51 89 1006.5
20260510011510 53 237 2.0 5.0 0.00 0.55 0.51 89 1006.4
20260510010047 53 0 0.0 2.0 0.00 4.14 3.11 89 1006.1
20260510010013 53 216 1.0 3.0 0.00 0.56 0.51 89 1006.3
20260510004550 54 0 0.0 2.0 1.28 5.05 3.11 90 1006.1
20260510004517 54 238 1.0 2.0 0.01 0.57 0.51 90 1006.4
20260510003047 54 0 0.0 2.0 2.57 5.05 3.11 89 1006.1
20260510003023 54 253 2.0 5.0 0.01 0.60 0.51 89 1006.4
20260510001543 54 0 0.0 4.0 5.13 5.05 3.11 89 1006.1
20260510001524 54 240 2.0 6.0 0.02 0.61 0.51 89 1006.4
20260510001505 54 243 2.0 6.0 0.02 0.61 0.51 89 1006.3
20260510000045 54 0 0.0 3.0 7.84 5.05 3.11 91 1006.0
20260510000026 54 274 4.0 9.0 0.28 0.64 0.51 90 1006.1
20260510000009 54 279 4.0 8.0 0.28 0.64 0.51 90 1006.1
20260509234549 53 0 0.0 3.0 5.35 5.69 2.86 90 1006.1
20260509234529 54 257 2.0 5.0 0.33 0.65 0.50 90 1006.2
20260509234525 54 254 2.0 5.0 0.33 0.65 0.50 90 1006.3
20260509233048 53 0 0.0 4.0 5.34 5.69 2.85 90 1006.3
20260509233017 53 252 2.0 5.0 0.33 0.67 0.50 90 1006.3
20260509231546 53 298 4.0 12.0 2.78 5.44 2.60 88 1006.4
20260509231524 53 281 6.0 13.0 0.32 0.68 0.49 88 1006.5
20260509230052 57 359 5.0 14.0 0.06 5.16 2.33 75 1006.3
20260509230026 58 290 8.0 23.0 0.06 0.43 0.23 76 1006.4
20260509230007 58 266 7.0 21.0 0.06 0.43 0.23 76 1006.3
20260509224555 65 270 0.0 9.0 0.00 5.68 2.32 53 1003.9
20260509224528 66 208 6.0 12.0 0.00 0.38 0.17 52 1003.9
20260509224526 66 230 6.0 10.0 0.00 0.38 0.17 52 1003.9
20260509223051 66 290 4.0 13.0 0.00 5.68 2.32 51 1003.8
20260509223018 66 168 8.0 22.0 0.00 0.40 0.17 50 1003.9
20260509223016 66 167 7.0 18.0 0.00 0.40 0.17 50 1003.9
20260509221550 66 249 7.0 13.0 0.00 5.68 2.32 52 1003.7
20260509221520 66 167 6.0 17.0 0.00 0.43 0.17 51 1003.7
20260509220049 67 245 7.0 13.0 0.00 5.68 2.32 50 1003.5
20260509220024 67 167 8.0 15.0 0.00 0.43 0.17 49 1003.5
20260509220010 67 168 9.0 16.0 0.00 0.43 0.17 49 1003.6
20260509214543 68 239 7.0 13.0 0.00 5.68 2.32 50 1003.3
20260509214511 68 203 9.0 18.0 0.00 0.44 0.17 48 1003.4
20260509214507 68 202 9.0 17.0 0.00 0.44 0.17 48 1003.4
20260509213057 68 262 3.0 14.0 0.00 5.68 2.32 53 1003.3
20260509213016 69 204 6.0 20.0 0.00 0.44 0.17 50 1003.4
20260509213012 69 203 6.0 19.0 0.00 0.44 0.17 50 1003.3
20260509211552 68 181 9.0 13.0 0.00 5.68 2.32 50 1003.5
20260509211520 68 203 11.0 20.0 0.00 0.44 0.17 50 1003.6
20260509211503 68 202 12.0 20.0 0.00 0.44 0.17 50 1003.6
20260509210058 68 175 6.0 13.0 0.00 5.68 2.32 53 1003.9
20260509210025 69 220 6.0 16.0 0.00 0.44 0.17 51 1004.0
20260509210002 69 260 7.0 17.0 0.00 0.44 0.17 51 1004.0
20260509204550 68 265 0.0 15.0 0.00 5.68 2.32 55 1004.1
20260509204524 68 167 6.0 22.0 0.00 0.44 0.17 53 1004.2
20260509203042 67 243 7.0 13.0 0.00 5.68 2.32 53 1004.3
20260509203012 67 167 7.0 18.0 0.00 0.44 0.17 53 1004.4
20260509201549 67 0 2.0 14.0 0.00 5.68 2.32 55 1004.4
20260509201516 68 167 5.0 19.0 0.00 0.44 0.17 54 1004.6
20260509200100 67 278 6.0 18.0 0.00 5.68 2.32 56 1004.5
20260509200022 67 233 7.0 19.0 0.00 0.44 0.17 55 1004.5
20260509194545 66 252 6.0 12.0 0.00 5.68 2.32 55 1005.0
20260509194527 67 167 7.0 13.0 0.00 0.44 0.17 53 1005.0
20260509194506 67 168 9.0 16.0 0.00 0.44 0.17 53 1005.1
20260509193045 66 278 6.0 13.0 0.00 5.68 2.32 57 1005.1
20260509193012 66 203 7.0 15.0 0.00 0.44 0.17 56 1005.2
20260509193007 66 202 8.0 16.0 0.00 0.44 0.17 56 1005.3
20260509191546 65 167 7.0 14.0 0.00 5.68 2.32 56 1005.4
20260509191519 66 168 12.0 23.0 0.00 0.44 0.17 56 1005.7
20260509191515 66 167 10.0 19.0 0.00 0.44 0.17 56 1005.5
20260509190046 65 241 5.0 11.0 0.00 5.68 2.32 60 1005.4
20260509190021 65 167 5.0 14.0 0.00 0.44 0.17 58 1005.4
20260509184554 64 266 6.0 12.0 0.00 5.68 2.32 59 1005.5
20260509184511 64 167 6.0 13.0 0.00 0.44 0.17 56 1005.6
20260509184503 64 168 8.0 16.0 0.00 0.44 0.17 56 1005.7
20260509183048 65 293 4.0 13.0 0.00 5.68 2.32 60 1005.4
20260509183009 65 167 5.0 12.0 0.00 0.44 0.17 60 1005.5
20260509181557 65 264 5.0 14.0 0.00 5.68 2.32 59 1005.4
20260509181515 65 114 5.0 20.0 0.00 0.44 0.17 60 1005.5
20260509180048 65 292 6.0 11.0 0.00 5.68 2.32 58 1005.5
20260509180019 65 168 9.0 15.0 0.00 0.44 0.17 57 1005.8
20260509174546 64 274 5.0 12.0 0.00 5.68 2.32 59 1005.6
20260509174527 65 167 6.0 13.0 0.00 0.44 0.17 61 1005.7
20260509174522 65 168 7.0 16.0 0.00 0.44 0.17 61 1005.8
20260509173048 63 260 6.0 12.0 0.00 5.68 2.32 59 1005.6
20260509173007 64 257 7.0 13.0 0.00 0.44 0.17 59 1005.7
20260509171551 63 276 6.0 11.0 0.00 5.68 2.32 63 1005.6
20260509171511 63 224 7.0 14.0 0.00 0.44 0.17 61 1005.9
20260509170050 62 283 5.0 12.0 0.00 5.68 2.32 67 1005.5
20260509170028 62 167 6.0 13.0 0.00 0.44 0.17 67 1005.6
20260509170016 62 168 8.0 14.0 0.00 0.44 0.17 67 1005.8
20260509164545 61 0 0.0 7.0 0.00 5.68 2.32 70 1005.7
20260509164533 62 215 5.0 10.0 0.00 0.44 0.17 68 1006.0
20260509164520 62 216 5.0 10.0 0.00 0.44 0.17 68 1005.9
20260509163043 60 0 0.0 4.0 0.00 5.68 2.32 72 1006.0
20260509163026 60 248 4.0 12.0 0.00 0.44 0.17 72 1006.1
20260509163004 60 228 4.0 13.0 0.00 0.44 0.17 72 1006.2
20260509161541 59 261 3.0 10.0 0.00 5.68 2.32 73 1006.2
20260509161508 59 229 4.0 11.0 0.00 0.44 0.17 72 1006.5
20260509161506 59 227 4.0 12.0 0.00 0.44 0.17 72 1006.5
20260509160041 60 257 5.0 11.0 0.00 5.68 2.32 74 1006.4
20260509160012 61 283 6.0 14.0 0.00 0.44 0.17 73 1006.6
20260509160010 61 279 6.0 15.0 0.00 0.44 0.17 73 1006.7
20260509154548 59 0 0.0 5.0 0.00 5.68 2.32 78 1006.3
20260509154518 59 245 5.0 10.0 0.00 0.44 0.17 77 1006.6
20260509154516 59 243 6.0 10.0 0.00 0.44 0.17 77 1006.6
20260509153059 57 0 0.0 9.0 0.00 5.68 2.32 79 1006.1
20260509153032 58 242 3.0 12.0 0.00 0.44 0.17 78 1006.5
20260509153028 58 244 3.0 11.0 0.00 0.44 0.17 78 1006.4
20260509151549 58 306 3.0 9.0 0.00 5.68 2.32 81 1006.2
20260509151525 58 216 5.0 12.0 0.00 0.44 0.17 80 1006.5
20260509151504 58 242 5.0 13.0 0.00 0.44 0.17 79 1006.6
20260509150048 57 0 0.0 9.0 0.00 5.68 2.32 84 1006.2
20260509150011 57 309 4.0 9.0 0.00 0.44 0.17 83 1006.6
20260509144557 56 0 0.0 5.0 0.00 5.68 2.32 85 1006.2
20260509144517 56 245 5.0 9.0 0.00 0.44 0.17 85 1006.7
20260509143054 55 0 0.0 5.0 0.00 5.68 2.32 89 1006.1
20260509143020 55 244 2.0 5.0 0.00 0.44 0.17 89 1006.6
20260509141548 54 0 0.0 5.0 0.00 5.68 2.32 90 1006.2
20260509141537 54 267 3.0 6.0 0.00 0.44 0.17 90 1006.6
20260509140052 53 0 0.0 5.0 0.00 5.68 2.32 91 1006.1
20260509140028 53 243 2.0 8.0 0.00 0.44 0.17 91 1006.5
20260509140009 53 242 2.0 8.0 0.00 0.44 0.17 91 1006.6
20260509134545 53 0 0.0 4.0 0.00 5.93 2.32 91 1006.1
20260509134524 53 237 3.0 7.0 0.00 0.44 0.17 91 1006.5
20260509134513 53 235 3.0 7.0 0.00 0.44 0.17 91 1006.6
20260509133046 53 0 0.0 5.0 0.00 5.93 2.32 92 1006.2
20260509133019 53 238 3.0 7.0 0.00 0.44 0.17 92 1006.5
20260509133016 53 236 3.0 7.0 0.00 0.44 0.17 92 1006.6
20260509131546 52 0 0.0 9.0 0.00 5.93 2.32 92 1006.1
20260509131527 53 211 3.0 9.0 0.00 0.45 0.17 92 1006.5
20260509131522 53 210 3.0 9.0 0.00 0.45 0.17 92 1006.6
20260509130043 52 0 0.0 2.0 0.00 5.93 2.32 93 1006.2
20260509130026 52 203 3.0 8.0 0.00 0.47 0.17 92 1006.6
20260509130023 52 202 3.0 8.0 0.00 0.47 0.17 92 1006.7
20260509124541 52 0 0.0 3.0 0.00 6.32 2.32 93 1006.4
20260509124526 52 233 3.0 7.0 0.00 0.47 0.17 93 1006.7
20260509124507 52 234 3.0 8.0 0.00 0.47 0.17 93 1006.9
20260509123047 52 0 0.0 3.0 0.00 6.32 2.32 93 1006.7
20260509123019 52 220 2.0 6.0 0.00 0.47 0.17 93 1007.0
20260509123015 52 221 2.0 6.0 0.00 0.47 0.17 93 1006.9
20260509121548 51 0 0.0 4.0 0.00 6.32 2.32 93 1006.7
20260509121525 52 229 2.0 6.0 0.00 0.47 0.17 94 1006.9
20260509121516 52 227 2.0 6.0 0.00 0.47 0.17 94 1006.9
20260509120058 51 0 0.0 3.0 0.00 6.32 2.32 94 1006.7
20260509120025 51 202 1.0 9.0 0.00 0.48 0.17 94 1007.0
20260509114540 51 0 0.0 4.0 0.00 6.32 2.32 94 1006.7
20260509114528 51 223 1.0 7.0 0.00 0.50 0.17 94 1007.0
20260509114524 51 221 1.0 8.0 0.00 0.50 0.17 94 1007.0
20260509113045 51 0 0.0 4.0 0.00 6.32 2.32 94 1006.6
20260509113028 51 226 1.0 7.0 0.00 0.50 0.17 94 1006.9
20260509113009 51 238 1.0 7.0 0.00 0.50 0.17 94 1006.9
20260509111544 51 0 0.0 3.0 0.00 6.32 2.32 94 1006.6
20260509111517 51 217 2.0 5.0 0.00 0.50 0.17 94 1006.9
20260509111515 51 215 2.0 5.0 0.00 0.50 0.17 94 1006.9
20260509110047 50 0 0.0 4.0 0.00 6.32 2.32 94 1006.5
20260509110022 50 203 2.0 5.0 0.00 0.50 0.17 94 1006.7
20260509104551 50 0 0.0 2.0 2.56 6.32 2.32 94 1006.4
20260509104524 50 221 1.0 4.0 0.00 0.50 0.17 94 1006.7
20260509104522 50 222 1.0 4.0 0.00 0.50 0.17 94 1006.6
20260509103051 50 0 0.0 2.0 2.57 6.32 2.32 94 1006.4
20260509103029 50 202 0.0 4.0 0.00 0.50 0.17 94 1006.7
20260509103025 50 203 0.0 4.0 0.00 0.50 0.17 94 1006.6
20260509101553 50 0 0.0 3.0 2.57 6.32 2.32 93 1006.4
20260509101526 50 203 1.0 5.0 0.00 0.50 0.17 94 1006.6
20260509101515 50 202 1.0 5.0 0.00 0.50 0.17 94 1006.7
20260509100048 50 0 0.0 4.0 2.57 6.32 2.32 93 1006.5
20260509100021 50 205 2.0 7.0 0.00 0.50 0.17 94 1006.8
20260509100016 50 205 2.0 7.0 0.00 0.50 0.17 94 1006.8
20260509094545 50 0 0.0 4.0 0.01 6.06 2.06 93 1006.6
20260509094529 50 203 2.0 5.0 0.00 0.50 0.17 94 1006.9
20260509094527 50 202 2.0 5.0 0.00 0.50 0.17 94 1007.0
20260509093046 50 0 0.0 5.0 0.00 6.06 2.06 93 1006.7
20260509093025 50 205 3.0 7.0 0.00 0.50 0.17 94 1006.9
20260509093008 50 227 3.0 7.0 0.00 0.50 0.17 94 1006.9
20260509091553 50 0 0.0 7.0 0.00 6.06 2.06 93 1006.8
20260509091530 50 210 2.0 9.0 0.00 0.50 0.17 94 1007.1
20260509091507 50 202 2.0 9.0 0.00 0.50 0.17 94 1007.1
20260509090049 50 0 0.0 2.0 0.00 6.06 2.06 94 1006.9
20260509090014 50 227 1.0 5.0 0.01 0.50 0.17 94 1007.3
20260509084549 50 0 0.0 2.0 0.00 6.06 2.06 94 1007.0
20260509084520 50 213 1.0 4.0 0.01 0.50 0.17 94 1007.3
20260509083052 50 252 0.0 3.0 0.00 6.06 2.06 94 1007.1
20260509083024 50 149 2.0 7.0 0.01 0.50 0.17 94 1007.4
20260509081546 50 0 0.0 3.0 0.00 6.06 2.06 94 1007.1
20260509081530 50 167 1.0 4.0 0.01 0.50 0.17 94 1007.3
20260509081507 50 168 1.0 5.0 0.01 0.50 0.17 94 1007.4
20260509080051 50 0 0.0 3.0 2.57 6.06 2.06 93 1007.1
20260509080026 50 167 1.0 5.0 0.00 0.49 0.16 94 1007.4
20260509080014 50 168 1.0 6.0 0.00 0.49 0.16 94 1007.4
20260509074554 50 0 0.0 2.0 2.57 6.06 2.06 93 1007.2
20260509074517 50 167 1.0 4.0 0.00 0.49 0.16 94 1007.4
20260509073115 50 276 0.0 4.0 3.85 6.06 2.06 93 1007.2
20260509073030 50 168 1.0 6.0 0.01 0.49 0.16 94 1007.6
20260509073008 50 167 1.0 5.0 0.01 0.49 0.16 94 1007.6
20260509071547 50 0 0.0 2.0 6.43 6.06 2.06 93 1007.4
20260509071522 50 168 2.0 8.0 0.02 0.49 0.16 94 1007.7
20260509071505 50 167 2.0 7.0 0.02 0.49 0.16 94 1007.7
20260509070053 50 248 0.0 3.0 6.80 5.81 1.81 93 1007.3
20260509070012 50 167 1.0 5.0 0.06 0.49 0.16 93 1007.6
20260509070008 50 168 2.0 6.0 0.06 0.49 0.16 93 1007.7
20260509064545 50 266 0.0 6.0 7.75 5.81 1.81 93 1007.4
20260509064516 50 168 2.0 7.0 0.06 0.49 0.16 93 1007.8
20260509064505 50 167 2.0 6.0 0.06 0.49 0.16 93 1007.8
20260509063044 50 0 0.0 7.0 7.76 5.68 1.68 93 1007.5
20260509063024 50 168 2.0 10.0 0.06 0.48 0.15 93 1007.9
20260509063006 50 167 2.0 8.0 0.06 0.48 0.15 93 1007.9
20260509061546 50 0 0.0 2.0 5.18 5.42 1.42 93 1007.8
20260509061522 50 168 3.0 9.0 0.05 0.47 0.14 93 1008.1
20260509061504 50 167 3.0 7.0 0.05 0.47 0.14 93 1008.1
20260509060057 50 0 0.0 4.0 3.52 5.13 1.13 93 1007.9
20260509060010 50 168 3.0 7.0 0.01 0.43 0.10 93 1008.3
20260509060004 50 167 2.0 6.0 0.01 0.43 0.10 93 1008.2